El Paso, TX

11:35 AM MST on January 17, 2017 (GMT -0700)
El Paso International

Weather History for KELP - February, 2013

Change the Weather History Date:

Monday, February 18, 2013

  Actual Average Record
Temperature  
Mean Temperature 57 °F 51 °F  
Max Temperature 64 °F 64 °F 85 °F (2016)
Min Temperature 49 °F 38 °F 15 °F (1883)
Degree Days  
Heating Degree Days 8 14  
Month to date heating degree days 286 288  
Since 1 July heating degree days 1775 1973  
Cooling Degree Days 0 0  
Month to date cooling degree days 0 0  
Year to date cooling degree days 0 0  
Growing Degree Days 6 (Base 50)    
Moisture  
Dew Point 5 °F    
Average Humidity 13    
Maximum Humidity 17    
Minimum Humidity 8    
Precipitation  
Precipitation 0.00 in 0.02 in 0.24 in (1957)
Month to date precipitation 0.01 0.32  
Year to date precipitation 0.31 0.72  
Snow  
Snow 0.00 in - - ()
Month to date snowfall 0.0  
Since 1 July snowfall 3.1  
Snow Depth 0.00 in    
Sea Level Pressure  
Sea Level Pressure 29.88 in    
Wind  
Wind Speed 12 mph (West)    
Max Wind Speed 28 mph    
Max Gust Speed 39 mph    
Visibility 10 miles    
Events      
T = Trace of Precipitation, MM = Missing Value Source: NWS Daily Summary

Daily Weather History Graph

Daily Weather History Graph

Search for Another Location

Airport or City:

Trip Planner

Search our weather history database for the weather conditions in past years. The results will help you decide how hot, cold, wet, or windy it might be!

Date:

Astronomy

Feb. 18, 2013 Rise Set
Actual Time 6:44 AM MST 5:54 PM MST
Civil Twilight 6:19 AM MST 6:19 PM MST
Nautical Twilight 5:50 AM MST 6:48 PM MST
Astronomical Twilight 5:22 AM MST 7:16 PM MST
Moon 11:53 AM MST (2/18) 1:16 AM MST (2/18)
Length of Visible Light 12h 00m
Length of Day
11h 10m
First Quarter, 59% of the Moon is Illuminated
Feb 18
First Quarter
Feb 25
Full
Mar 4
Last Quarter
Mar 11
New
Mar 19
First Quarter

Hourly Weather History & Observations

Time (MST) Temp. Dew Point Humidity Pressure Visibility Wind Dir Wind Speed Gust Speed Precip Events Conditions
12:51 AM 57.9 °F 3.0 °F 11% 29.75 in 10.0 mi West 19.6 mph 28.8 mph N/A   Partly Cloudy
1:51 AM 55.9 °F 3.9 °F 12% 29.77 in 10.0 mi WNW 15.0 mph 24.2 mph N/A   Clear
2:51 AM 55.0 °F 7.0 °F 15% 29.76 in 10.0 mi West 24.2 mph 33.4 mph N/A   Clear
3:51 AM 54.0 °F 8.1 °F 16% 29.78 in 10.0 mi WNW 28.8 mph 39.1 mph N/A   Clear
4:51 AM 53.1 °F 8.1 °F 16% 29.81 in 10.0 mi West 21.9 mph 31.1 mph N/A   Clear
5:51 AM 53.6 °F 8.6 °F 16% 29.96 in 10.0 mi West 16.1 mph 27.6 mph N/A   Clear
6:51 AM 52.0 °F 9.0 °F 18% 29.90 in 10.0 mi West 13.8 mph 23.0 mph N/A   Clear
7:51 AM 52.0 °F 9.0 °F 18% 29.93 in 10.0 mi Variable 4.6 mph - N/A   Partly Cloudy
8:51 AM 55.0 °F 9.0 °F 16% 29.96 in 10.0 mi Variable 3.5 mph - N/A   Scattered Clouds
9:51 AM 57.0 °F 10.0 °F 15% 29.94 in 10.0 mi WNW 13.8 mph - N/A   Scattered Clouds
10:51 AM 60.1 °F 9.0 °F 13% 29.92 in 10.0 mi West 23.0 mph 29.9 mph N/A   Scattered Clouds
11:51 AM 62.1 °F 6.1 °F 11% 29.91 in 10.0 mi West 13.8 mph 26.5 mph N/A   Mostly Cloudy
12:51 PM 63.0 °F 1.9 °F 9% 29.88 in 10.0 mi West 13.8 mph 27.6 mph N/A   Mostly Cloudy
1:51 PM 63.0 °F 1.0 °F 8% 29.88 in 10.0 mi West 20.7 mph 26.5 mph N/A   Mostly Cloudy
2:51 PM 64.0 °F 3.0 °F 9% 29.88 in 10.0 mi West 9.2 mph 20.7 mph N/A   Mostly Cloudy
3:51 PM 63.0 °F 1.0 °F 8% 29.87 in 10.0 mi Variable 6.9 mph - N/A   Mostly Cloudy
4:51 PM 62.1 °F -0.0 °F 8% 29.87 in 10.0 mi West 8.1 mph - N/A   Mostly Cloudy
5:51 PM 61.0 °F 1.0 °F 9% 29.88 in 10.0 mi West 4.6 mph - N/A   Mostly Cloudy
6:51 PM 57.0 °F 1.0 °F 10% 29.89 in 10.0 mi Calm Calm - N/A   Mostly Cloudy
7:51 PM 51.1 °F 1.0 °F 13% 29.92 in 10.0 mi ESE 5.8 mph - N/A   Mostly Cloudy
8:51 PM 53.1 °F 3.0 °F 13% 29.92 in 10.0 mi ESE 5.8 mph - N/A   Mostly Cloudy
9:51 PM 51.1 °F 3.9 °F 15% 29.93 in 10.0 mi South 3.5 mph - N/A   Scattered Clouds
10:51 PM 51.1 °F 3.9 °F 15% 29.94 in 10.0 mi South 3.5 mph - N/A   Scattered Clouds
11:51 PM 51.1 °F 3.9 °F 15% 29.93 in 10.0 mi Calm Calm - N/A   Scattered Clouds